| time (UTC) | temp C | wind direction | speed KPH | gust KPH | rain 1hr cm | rain 24hr cm | rain mn cm | humidity % | barometer mb |
| 20260505093050 | 12 | 0 | 0.0 | 1.6 | 0.00 | 0.00 | 0.00 | 81 | 1016.7 |
| 20260505091550 | 12 | 0 | 0.0 | 1.6 | 0.00 | 0.00 | 0.00 | 81 | 1016.7 |
| 20260505090049 | 12 | 0 | 0.0 | 4.8 | 0.00 | 0.00 | 0.00 | 80 | 1016.7 |
| 20260505084548 | 13 | 0 | 0.0 | 1.6 | 0.00 | 0.00 | 0.00 | 79 | 1016.6 |
| 20260505083049 | 13 | 0 | 0.0 | 0.0 | 0.00 | 0.00 | 0.00 | 78 | 1016.7 |
| 20260505081554 | 13 | 0 | 0.0 | 3.2 | 0.00 | 0.00 | 0.00 | 77 | 1016.8 |
| 20260505080104 | 14 | 0 | 0.0 | 3.2 | 0.00 | 0.00 | 0.00 | 76 | 1016.3 |
| 20260505074553 | 14 | 0 | 0.0 | 4.8 | 0.00 | 0.00 | 0.00 | 75 | 1016.3 |
| 20260505073055 | 14 | 0 | 0.0 | 4.8 | 0.00 | 0.00 | 0.00 | 75 | 1016.3 |
| 20260505071554 | 15 | 0 | 0.0 | 3.2 | 0.00 | 0.00 | 0.00 | 75 | 1016.3 |
| 20260505070056 | 15 | 0 | 0.0 | 6.4 | 0.00 | 0.00 | 0.00 | 73 | 1016.3 |
| 20260505064604 | 15 | 0 | 0.0 | 8.0 | 0.00 | 0.00 | 0.00 | 72 | 1016.3 |
| 20260505063052 | 15 | 0 | 0.0 | 4.8 | 0.00 | 0.00 | 0.00 | 72 | 1016.2 |
| 20260505061552 | 16 | 209 | 0.0 | 4.8 | 0.00 | 0.00 | 0.00 | 71 | 1016.2 |
| 20260505060056 | 16 | 195 | 0.0 | 8.0 | 0.00 | 0.00 | 0.00 | 70 | 1016.3 |
| 20260505054559 | 16 | 147 | 0.0 | 8.0 | 0.00 | 0.00 | 0.00 | 69 | 1016.2 |
| 20260505053105 | 16 | 0 | 1.6 | 8.0 | 0.00 | 0.00 | 0.00 | 69 | 1016.4 |
| 20260505051600 | 16 | 213 | 0.0 | 8.0 | 0.00 | 0.00 | 0.00 | 68 | 1016.5 |
| 20260505041554 | 17 | 0 | 0.0 | 8.0 | 0.00 | 0.00 | 0.00 | 66 | 1016.1 |
| 20260505040052 | 17 | 145 | 0.0 | 8.0 | 0.00 | 0.00 | 0.00 | 66 | 1016.2 |
| 20260505034556 | 18 | 155 | 0.0 | 8.0 | 0.00 | 0.00 | 0.00 | 65 | 1016.1 |
| 20260505033051 | 18 | 155 | 1.6 | 9.7 | 0.00 | 0.00 | 0.00 | 64 | 1016.0 |
| 20260505031549 | 18 | 169 | 1.6 | 11.3 | 0.00 | 0.00 | 0.00 | 63 | 1016.0 |
| 20260505030048 | 18 | 0 | 0.0 | 11.3 | 0.00 | 0.00 | 0.00 | 61 | 1015.9 |
| 20260505024552 | 18 | 165 | 0.0 | 8.0 | 0.00 | 0.00 | 0.00 | 58 | 1016.2 |
| 20260505023102 | 18 | 194 | 1.6 | 9.7 | 0.00 | 0.00 | 0.00 | 55 | 1016.2 |
| 20260505021549 | 18 | 171 | 0.0 | 4.8 | 0.00 | 0.00 | 0.00 | 53 | 1016.1 |
| 20260505020055 | 18 | 0 | 0.0 | 4.8 | 0.00 | 0.00 | 0.00 | 54 | 1015.8 |
| 20260505014550 | 18 | 0 | 0.0 | 1.6 | 0.00 | 0.00 | 0.00 | 55 | 1015.7 |
| 20260505013054 | 18 | 0 | 0.0 | 1.6 | 0.00 | 0.00 | 0.00 | 55 | 1015.6 |
| 20260505011552 | 18 | 0 | 0.0 | 1.6 | 0.00 | 0.00 | 0.00 | 54 | 1015.4 |
| 20260505010051 | 18 | 0 | 0.0 | 1.6 | 0.00 | 0.00 | 0.00 | 53 | 1015.2 |
| 20260505004548 | 18 | 0 | 0.0 | 1.6 | 0.00 | 0.00 | 0.00 | 52 | 1015.2 |
| 20260505003050 | 19 | 0 | 0.0 | 1.6 | 0.00 | 0.00 | 0.00 | 51 | 1014.9 |
| 20260505001550 | 20 | 0 | 0.0 | 1.6 | 0.00 | 0.00 | 0.00 | 49 | 1014.6 |
| 20260505000058 | 21 | 0 | 0.0 | 0.0 | 0.00 | 0.00 | 0.00 | 49 | 1014.5 |
| 20260504234549 | 22 | 0 | 0.0 | 1.6 | 0.00 | 0.00 | 0.00 | 45 | 1014.6 |
| 20260504233050 | 22 | 0 | 0.0 | 4.8 | 0.00 | 0.00 | 0.00 | 41 | 1014.3 |
| 20260504231545 | 23 | 0 | 0.0 | 8.0 | 0.00 | 0.00 | 0.00 | 43 | 1014.2 |
| 20260504230050 | 23 | 0 | 0.0 | 9.7 | 0.00 | 0.00 | 0.00 | 39 | 1014.1 |
| 20260504224549 | 23 | 0 | 0.0 | 8.0 | 0.00 | 0.00 | 0.00 | 38 | 1014.2 |
| 20260504223048 | 24 | 0 | 0.0 | 14.5 | 0.00 | 0.00 | 0.00 | 37 | 1014.3 |
| 20260504221545 | 24 | 150 | 1.6 | 12.9 | 0.00 | 0.00 | 0.00 | 36 | 1014.2 |
| 20260504220110 | 24 | 0 | 0.0 | 6.4 | 0.00 | 0.00 | 0.00 | 37 | 1014.1 |
| 20260504214555 | 24 | 215 | 1.6 | 11.3 | 0.00 | 0.00 | 0.00 | 35 | 1014.3 |
| 20260504213054 | 24 | 140 | 3.2 | 12.9 | 0.00 | 0.00 | 0.00 | 35 | 1014.3 |
| 20260504211554 | 24 | 194 | 1.6 | 12.9 | 0.00 | 0.00 | 0.00 | 37 | 1014.4 |
| 20260504210050 | 24 | 188 | 3.2 | 9.7 | 0.00 | 0.00 | 0.00 | 36 | 1014.5 |
| 20260504204552 | 25 | 265 | 0.0 | 6.4 | 0.00 | 0.00 | 0.00 | 37 | 1014.4 |
| 20260504203049 | 24 | 183 | 1.6 | 14.5 | 0.00 | 0.00 | 0.00 | 35 | 1014.6 |
| 20260504201547 | 24 | 175 | 3.2 | 12.9 | 0.00 | 0.00 | 0.00 | 36 | 1014.7 |
| 20260504200057 | 24 | 271 | 1.6 | 14.5 | 0.00 | 0.00 | 0.00 | 37 | 1014.8 |
| 20260504194549 | 23 | 157 | 1.6 | 12.9 | 0.00 | 0.00 | 0.00 | 40 | 1014.9 |
| 20260504193051 | 23 | 182 | 6.4 | 14.5 | 0.00 | 0.00 | 0.00 | 37 | 1015.1 |
| 20260504191557 | 23 | 0 | 1.6 | 8.0 | 0.00 | 0.00 | 0.00 | 41 | 1015.1 |
| 20260504190108 | 23 | 0 | 1.6 | 11.3 | 0.00 | 0.00 | 0.00 | 37 | 1015.3 |
| 20260504184554 | 23 | 263 | 3.2 | 12.9 | 0.00 | 0.00 | 0.00 | 39 | 1015.6 |
| 20260504183054 | 23 | 0 | 3.2 | 9.7 | 0.00 | 0.00 | 0.00 | 38 | 1015.8 |
| 20260504181558 | 23 | 138 | 3.2 | 9.7 | 0.00 | 0.00 | 0.00 | 39 | 1015.9 |
| 20260504180049 | 23 | 303 | 3.2 | 14.5 | 0.00 | 0.00 | 0.00 | 37 | 1016.0 |
| 20260504174547 | 23 | 140 | 1.6 | 11.3 | 0.00 | 0.00 | 0.00 | 38 | 1016.1 |
| 20260504173057 | 23 | 212 | 1.6 | 6.4 | 0.00 | 0.00 | 0.00 | 42 | 1016.3 |
| 20260504171549 | 23 | 0 | 0.0 | 8.0 | 0.00 | 0.00 | 0.00 | 38 | 1016.5 |